Spokane, WA

9:43 PM PST on December 04, 2016 (GMT -0800)
Spokane International

Weather History for KGEG - March, 2012

Change the Weather History Date:

Monday, March 12, 2012

  Actual Average Record
Temperature  
Mean Temperature 35 °F 39 °F  
Max Temperature 42 °F 48 °F 67 °F (1934)
Min Temperature 27 °F 31 °F 8 °F (2009)
Degree Days  
Heating Degree Days 30 26  
Month to date heating degree days 329 330  
Since 1 July heating degree days 5008 5159  
Cooling Degree Days 0 0  
Month to date cooling degree days 0 0  
Year to date cooling degree days 0 0  
Moisture  
Dew Point 29 °F    
Average Humidity 76    
Maximum Humidity 92    
Minimum Humidity 59    
Precipitation  
Precipitation 0.17 in 0.06 in 0.58 in (1945)
Month to date precipitation 0.44 0.63  
Year to date precipitation 3.93 3.75  
Snow  
Snow T in 0.10 in 4.00 in (1899)
Month to date snowfall 0.1 1.6  
Since 1 July snowfall 30.3 41.9  
Snow Depth 0.00 in    
Sea Level Pressure  
Sea Level Pressure 29.65 in    
Wind  
Wind Speed 12 mph (SSE)    
Max Wind Speed 21 mph    
Max Gust Speed 30 mph    
Visibility 8 miles    
Events Rain , Snow    
T = Trace of Precipitation, MM = Missing Value Source: NWS Daily Summary

Daily Weather History Graph

Daily Weather History Graph

Search for Another Location

Airport or City:

Trip Planner

Search our weather history database for the weather conditions in past years. The results will help you decide how hot, cold, wet, or windy it might be!

Date:

Astronomy

Mar. 12, 2012 Rise Set
Actual Time 7:07 AM PDT 6:52 PM PDT
Civil Twilight 6:37 AM PDT 7:22 PM PDT
Nautical Twilight 6:01 AM PDT 7:58 PM PDT
Astronomical Twilight 5:25 AM PDT 8:35 PM PDT
Moon No Moon Rise 9:07 AM PDT (3/12)
Length of Visible Light 12h 45m
Length of Day
11h 44m
Waning Gibbous, 75% of the Moon is Illuminated
Mar 12
Waning Gibbous
Mar 14
Last Quarter
Mar 22
New
Mar 30
First Quarter
Apr 6
Full

Hourly Weather History & Observations

Time (PDT) Temp. Windchill Dew Point Humidity Pressure Visibility Wind Dir Wind Speed Gust Speed Precip Events Conditions
12:53 AM 30.0 °F 20.0 °F 21.9 °F 72% 29.80 in 10.0 mi SSW 12.7 mph - N/A   Partly Cloudy
1:53 AM 28.9 °F 17.7 °F 21.0 °F 72% 29.82 in 10.0 mi SSW 15.0 mph - N/A   Partly Cloudy
2:53 AM 28.0 °F 19.3 °F 21.0 °F 75% 29.83 in 10.0 mi SSE 9.2 mph - N/A   Partly Cloudy
3:53 AM 27.0 °F 18.7 °F 21.0 °F 78% 29.83 in 10.0 mi SSE 8.1 mph - N/A   Partly Cloudy
4:53 AM 28.0 °F 19.3 °F 21.9 °F 78% 29.83 in 10.0 mi SSE 9.2 mph - N/A   Scattered Clouds
5:53 AM 28.0 °F 21.7 °F 21.9 °F 78% 29.82 in 10.0 mi SE 5.8 mph - N/A   Scattered Clouds
6:53 AM 30.0 °F 22.4 °F 21.0 °F 69% 29.79 in 10.0 mi ESE 8.1 mph - N/A   Mostly Cloudy
7:53 AM 30.9 °F 23.5 °F 19.9 °F 64% 29.78 in 10.0 mi ESE 8.1 mph - N/A   Overcast
8:53 AM 30.9 °F 25.2 °F 21.9 °F 69% 29.77 in 10.0 mi ENE 5.8 mph - N/A   Overcast
9:53 AM 33.1 °F 24.4 °F 21.9 °F 64% 29.75 in 10.0 mi ESE 11.5 mph 18.4 mph N/A   Overcast
10:53 AM 35.1 °F 26.4 °F 23.0 °F 61% 29.71 in 10.0 mi SE 12.7 mph 18.4 mph N/A   Overcast
11:53 AM 37.0 °F 28.9 °F 26.1 °F 65% 29.69 in 10.0 mi South 12.7 mph 18.4 mph N/A   Overcast
12:10 PM 37.4 °F 27.8 °F 28.4 °F 70% 29.64 in 2.5 mi SSE 17.3 mph 23.0 mph 0.00 in Snow Light Snow
12:19 PM 35.6 °F 25.9 °F 30.2 °F 81% 29.64 in 1.0 mi SSE 16.1 mph 24.2 mph 0.00 in Snow Light Snow
12:53 PM 34.0 °F 25.5 °F 32.0 °F 92% 29.68 in 1.0 mi SSE 11.5 mph 17.3 mph 0.01 in Snow Light Snow
1:53 PM 35.1 °F 26.4 °F 32.0 °F 89% 29.65 in 2.0 mi SSE 12.7 mph 20.7 mph 0.03 in Rain , Snow Light Rain
2:53 PM 35.1 °F 25.5 °F 32.0 °F 89% 29.63 in 2.0 mi SSE 15.0 mph - 0.05 in Rain , Snow Light Rain
3:53 PM 36.0 °F 26.7 °F 33.8 °F 92% 29.61 in 4.0 mi SSE 15.0 mph 25.3 mph 0.04 in Rain Light Rain
4:53 PM 37.9 °F 28.5 °F 35.6 °F 91% 29.58 in 7.0 mi SSE 17.3 mph 25.3 mph 0.02 in Rain Light Rain
5:04 PM 37.4 °F 28.5 °F 35.6 °F 93% 29.53 in 7.0 mi SSE 15.0 mph 28.8 mph N/A Rain Light Rain
5:53 PM 39.0 °F 31.0 °F 36.0 °F 89% 29.55 in 10.0 mi SSE 13.8 mph 29.9 mph 0.00 in Rain Light Rain
6:42 PM 39.2 °F 30.5 °F 35.6 °F 87% 29.49 in 10.0 mi SSE 16.1 mph 24.2 mph N/A   Overcast
6:53 PM 39.9 °F 30.5 °F 35.2 °F 83% 29.53 in 10.0 mi SSE 19.6 mph 28.8 mph 0.00 in   Overcast
7:53 PM 41.0 °F 32.8 °F 35.6 °F 81% 29.50 in 10.0 mi SSE 16.1 mph 25.3 mph 0.00 in   Overcast
8:53 PM 41.0 °F 32.8 °F 36.7 °F 85% 29.49 in 10.0 mi SSE 16.1 mph 24.2 mph N/A   Overcast
9:53 PM 42.1 °F 34.5 °F 37.0 °F 82% 29.47 in 10.0 mi SSE 15.0 mph - 0.00 in Rain Light Rain
10:53 PM 42.1 °F 34.9 °F 36.0 °F 79% 29.44 in 10.0 mi SSE 13.8 mph 23.0 mph 0.00 in   Overcast
11:53 PM 42.1 °F 35.2 °F 37.0 °F 82% 29.42 in 10.0 mi SSE 12.7 mph - 0.01 in Rain Light Rain